Location: Unspecified
(0.0000°N, 0.0000°E)
Time: 00:35:27
(UTC+00:00)

Courier 1B Rocket - Visible Passes

Search period start: 07 May 2015 00:00
Search period end: 17 May 2015 00:00
Orbit: 920 x 1202 km, 28.2° (Epoch: 05 May)

Date Brightness Start Highest point End Pass type
(mag) Time Alt. Az. Time Alt. Az. Time Alt. Az.
07 May 7.0 02:51:02 23° ESE 02:51:02 23° ESE 02:53:34 10° ESE visible
07 May 5.7 04:37:28 30° WSW 04:40:11 40° SSW 04:47:08 10° SE visible
08 May 5.9 03:41:03 43° SSE 03:41:03 43° SSE 03:46:10 10° SE visible
08 May 6.7 05:28:15 10° WSW 05:33:16 19° SSW 05:38:16 10° SSE visible
09 May 7.6 02:44:32 12° ESE 02:44:32 12° ESE 02:45:00 10° ESE visible
09 May 6.2 04:30:57 26° SW 04:31:46 26° SSW 04:37:45 10° SSE visible
10 May 6.8 03:34:21 22° SSE 03:34:21 22° SSE 03:37:01 10° SE visible
10 May 7.0 05:21:59 10° SW 05:25:07 13° SSW 05:28:04 10° S visible
11 May 6.7 04:24:04 17° SSW 04:24:04 17° SSW 04:28:02 10° SSE visible
12 May 7.4 03:27:18 11° SSE 03:27:18 11° SSE 03:27:36 10° SSE visible
13 May 7.2 04:16:51 11° S 04:16:51 11° S 04:17:28 10° S visible
16 May 7.2 20:20:39 10° N 20:22:12 12° NNE 20:22:12 12° NNE visible
